[[{"header":{"parameterUnit":"m.s-1","parameterCategory":1,"la1":30.2991,"la2":30.254,"lo1":-89.0895,"lo2":-89.0444,"dy":0.0017,"dx":0.0017,"nx":28,"ny":28,"refTime":"2024-02-10T09:00:00:Z","depth":0,"parameterNumber":2,"parameterNumberName":"U-component_of_WINDS"},"data":[0,0,0,0,0,0,0,0,0,0,0,0,0,0,0,0,0,0,0,0,0,0,0,0,0,0,0,0,0,0,0,0,0,0,0,0,0,0,0,0,0,0,0,0,0,0,0,0,0,0,0,0,0,0,0,0,0,0,-1.762,-1.7621,0,-1.7642,-1.7642,-1.7642,-1.7623,-1.7622,-1.7621,-1.7621,-1.7644,-1.7645,-1.7647,0,0,0,0,0,0,0,0,0,0,0,0,0,-1.7565,-1.7566,-1.762,-1.7621,-1.7621,-1.7642,-1.7642,-1.7642,-1.7623,-1.7622,-1.7621,-1.762,-1.7644,-1.7645,-1.7647,0,0,0,0,0,0,0,0,0,0,0,0,0,-1.7588,-1.7567,-1.762,-1.7614,-1.7613,-1.7642,-1.7642,-1.7642,-1.7623,-1.7622,-1.7621,-1.762,-1.7643,-1.7645,-1.7647,-1.7683,0,0,-1.7653,-1.7654,0,0,0,0,0,0,0,0,-1.7587,-1.759,-1.7615,-1.7614,-1.7614,-1.7628,-1.7631,-1.7656,-1.7624,-1.762,-1.7621,-1.7619,-1.764,-1.7642,-1.7649,-1.7684,-1.7685,-1.7654,-1.7655,-1.7656,-1.7656,0,0,0,0,0,0,0,-1.7585,-1.7589,-1.7629,-1.7615,-1.7615,-1.761,-1.7612,-1.7636,-1.7636,-1.762,-1.7619,-1.7621,-1.764,-1.7647,-1.7649,-1.7686,-1.7653,-1.7655,-1.7657,-1.7657,-1.7751,-1.7752,0,0,0,0,0,0,-1.7584,-1.7588,-1.7628,-1.7629,-1.7597,-1.7612,-1.7615,-1.7625,-1.7636,-1.7636,-1.7622,-1.762,-1.7644,-1.7647,-1.765,-1.7692,-1.7656,-1.7658,-1.7659,-1.775,-1.7751,-1.7753,0,0,0,0,0,0,-1.7583,-1.7588,-1.7627,-1.7608,-1.7613,-1.7615,-1.7626,-1.7626,-1.7633,-1.7638,-1.7638,-1.7629,-1.7643,-1.7647,-1.7675,-1.7692,-1.7658,-1.766,-1.7748,-1.775,-1.7752,-1.7776,0,0,0,0,0,0,-1.7581,-1.7587,-1.7601,-1.7609,-1.7614,-1.7651,-1.7628,-1.7627,-1.7637,-1.7634,-1.7644,-1.7645,-1.7643,-1.7672,-1.7677,-1.7695,-1.7662,-1.7747,-1.7749,-1.7751,-1.7774,-1.7779,-1.7783,0,0,0,0,0,-1.7579,-1.7607,-1.7601,-1.7606,-1.7631,-1.7652,-1.7655,-1.7651,-1.7638,-1.7651,-1.7654,-1.7645,-1.769,-1.7675,-1.768,-1.7699,-1.7746,-1.7749,-1.7751,-1.7772,-1.7778,-1.7783,0,0,0,0,0,0,-1.7602,-1.7608,-1.7602,-1.7633,-1.7642,-1.7649,-1.7666,-1.7658,-1.7672,-1.7669,-1.7664,-1.7667,-1.7696,-1.7701,-1.7683,-1.7734,-1.7716,-1.772,-1.7729,-1.7735,-1.774,-1.7737,-1.7664,0,0,0,0,0,-1.761,-1.7627,-1.7632,-1.7659,-1.7664,-1.7664,-1.7673,-1.767,-1.7679,-1.7683,-1.7688,-1.7698,-1.7715,-1.7726,-1.7741,-1.7775,-1.7777,-1.7791,-1.7795,-1.7799,-1.7802,-1.782,-1.7825,-1.7762,-1.7762,-1.7762,0,0,-1.7628,-1.7634,-1.7644,-1.7663,-1.767,-1.7687,-1.7667,-1.7687,-1.77,-1.7686,-1.7712,-1.7716,-1.7727,-1.7758,-1.7772,-1.7763,-1.782,-1.7803,-1.7806,-1.7807,-1.7823,-1.7829,-1.7834,-1.7764,-1.7764,-1.7763,0,0,-1.7669,-1.7675,-1.7698,-1.7705,-1.7715,-1.7715,-1.772,-1.7729,-1.773,-1.7756,-1.7746,-1.7762,-1.7791,-1.7799,-1.7807,-1.7851,-1.7842,-1.7857,-1.788,-1.7897,-1.7902,-1.7906,-1.7921,-1.7926,-1.786,-1.786,-1.786,0,-1.769,-1.7715,-1.771,-1.773,-1.7739,-1.7727,-1.775,-1.7757,-1.7772,-1.7779,-1.7769,-1.7804,-1.7811,-1.7843,-1.7853,-1.7861,-1.7866,-1.7854,-1.7901,-1.7906,-1.791,-1.7923,-1.7929,-1.7862,-1.7862,-1.7861,-1.7861,0,-1.7739,-1.7757,-1.7774,-1.7788,-1.7798,-1.782,-1.7819,-1.7831,-1.7827,-1.7828,-1.7854,-1.7862,-1.7879,-1.7887,-1.7883,-1.7918,-1.7912,-1.7902,-1.7883,-1.7917,-1.793,-1.7935,-1.7864,-1.7863,-1.7863,-1.7862,0,0,-1.7793,-1.7804,-1.781,-1.7816,-1.7827,-1.7841,-1.7862,-1.7877,-1.7887,-1.7898,-1.7915,-1.794,-1.7931,-1.794,-1.7937,-1.7953,-1.7986,-1.794,-1.7941,-1.7947,-1.8023,-1.803,-1.8036,-1.7981,-1.7982,-1.7983,-1.8022,0,-1.7833,-1.7868,-1.7865,-1.7899,-1.7915,-1.7904,-1.7923,-1.7932,-1.7934,-1.7948,-1.7951,-1.7968,-1.7955,-1.796,-1.7975,-1.7978,-1.8001,-1.7976,-1.7996,-1.7997,-1.7991,-1.8043,-1.8049,-1.8086,-1.8027,-1.8028,-1.8029,0,-1.7883,-1.7895,-1.793,-1.7938,-1.7944,-1.7961,-1.7974,-1.7989,-1.7999,-1.7999,-1.8009,-1.8004,-1.8026,-1.8008,-1.8038,-1.8021,-1.8029,-1.8033,-1.8034,-1.8034,-1.8013,-1.8043,-1.8098,-1.8102,-1.8037,-1.8036,-1.8036,0,-1.7917,-1.7942,-1.7966,-1.7972,-1.7982,-1.7993,-1.7998,-1.8007,-1.8016,-1.8029,-1.8035,-1.8051,-1.8058,-1.8071,-1.807,-1.8057,-1.81,-1.8082,-1.81,-1.81,-1.8108,-1.8107,-1.8163,-1.8117,-1.8117,-1.8117,-1.8117,0,-1.7961,-1.7982,-1.7981,-1.7995,-1.8019,-1.8016,-1.804,-1.8044,-1.8052,-1.8067,-1.8061,-1.8075,-1.8074,-1.809,-1.809,-1.8113,-1.8118,-1.8118,-1.8118,-1.8118,-1.8118,-1.8122,-1.8119,-1.8118,-1.8118,-1.8117,-1.8117,0,-1.8001,-1.8002,-1.8027,-1.8034,-1.8037,-1.8054,-1.806,-1.8074,-1.8076,-1.8096,-1.81,-1.8103,-1.8121,-1.8122,-1.8142,-1.8142,-1.8171,-1.8168,-1.8167,-1.8166,-1.8183,-1.8181,-1.8243,-1.825,-1.82,-1.8201,-1.8201,0,-1.8028,-1.8044,-1.8053,-1.8062,-1.8068,-1.8083,-1.8092,-1.8091,-1.8101,-1.8114,-1.8126,-1.8143,-1.8155,-1.8184,-1.8188,-1.8204,-1.8201,-1.8221,-1.8203,-1.8202,-1.8199,-1.8197,-1.8198,-1.8224,-1.8225,-1.8225,-1.8226,0,-1.8075,-1.8074,-1.8088,-1.8101,-1.8112,-1.8123,-1.8133,-1.8141,-1.8141,-1.8153,-1.817,-1.818,-1.82,-1.8217,-1.8232,-1.8237,-1.8231,-1.8232,-1.8236,-1.8236,-1.8233,-1.8233,-1.8174,-1.823,-1.8229,-1.8229,-1.8229,-1.8229,-1.8109,-1.8122,-1.813,-1.8145,-1.8152,-1.8162,-1.8175,-1.8178,-1.8192,-1.8208,-1.8207,-1.8225,-1.8235,-1.8255,-1.8262,-1.8277,-1.827,-1.8277,-1.8279,-1.828,-1.8281,-1.8233,-1.828,-1.828,-1.828,-1.828,-1.828,0,-1.8154,-1.8158,-1.8172,-1.8186,-1.8198,-1.8191,-1.8202,-1.8212,-1.8228,-1.8238,-1.8251,-1.827,-1.8286,-1.8292,-1.8308,-1.8319,-1.8316,-1.8323,-1.8321,-1.8322,-1.8287,-1.8281,-1.8324,-1.8324,-1.8324,-1.8324,-1.8324,-1.8324,-1.8178,-1.82,-1.82,-1.8226,-1.8231,-1.8248,-1.8255,-1.8264,-1.8271,-1.8293,-1.8306,-1.831,-1.8318,-1.8334,-1.8348,-1.835,-1.8355,-1.8362,-1.8362,-1.8329,-1.8325,-1.832,-1.8314,-1.8364,-1.8364,-1.8396,-1.8396,-1.8396]},{"header":{"parameterUnit":"m.s-1","parameterCategory":1,"la1":30.2991,"la2":30.254,"lo1":-89.0895,"lo2":-89.0444,"dy":0.0017,"dx":0.0017,"nx":28,"ny":28,"refTime":"2024-02-10T09:00:00:Z","depth":0,"parameterNumber":3,"parameterNumberName":"V-component_of_WINDS"},"data":[0,0,0,0,0,0,0,0,0,0,0,0,0,0,0,0,0,0,0,0,0,0,0,0,0,0,0,0,0,0,0,0,0,0,0,0,0,0,0,0,0,0,0,0,0,0,0,0,0,0,0,0,0,0,0,0,0,0,2.3327,2.3328,0,2.3404,2.3404,2.3405,2.3411,2.341,2.3409,2.3409,2.3486,2.3489,2.3492,0,0,0,0,0,0,0,0,0,0,0,0,0,2.3187,2.319,2.3327,2.3328,2.3329,2.3403,2.3404,2.3406,2.3411,2.341,2.3409,2.3408,2.3485,2.3489,2.3492,0,0,0,0,0,0,0,0,0,0,0,0,0,2.3254,2.3191,2.3327,2.3341,2.3343,2.3403,2.3405,2.3406,2.3411,2.341,2.3409,2.3408,2.3484,2.3488,2.3493,2.3544,0,0,2.3506,2.3508,0,0,0,0,0,0,0,0,2.325,2.3259,2.3338,2.334,2.3342,2.3397,2.3384,2.3452,2.3412,2.3385,2.3409,2.3407,2.3457,2.3464,2.3481,2.3548,2.3551,2.3506,2.3509,2.3511,2.3512,0,0,0,0,0,0,0,2.3246,2.3256,2.3357,2.3339,2.3342,2.3344,2.3352,2.3397,2.3428,2.3388,2.3388,2.3397,2.3458,2.3477,2.3483,2.3552,2.3506,2.351,2.3512,2.3514,2.3668,2.3669,0,0,0,0,0,0,2.3238,2.3252,2.3355,2.336,2.3292,2.3347,2.3356,2.338,2.3427,2.3433,2.3398,2.3397,2.347,2.3478,2.3486,2.3551,2.3511,2.3515,2.3517,2.3666,2.3668,2.367,0,0,0,0,0,0,2.3235,2.3248,2.3352,2.3306,2.332,2.3351,2.3378,2.3383,2.3401,2.3435,2.3441,2.3411,2.3469,2.348,2.353,2.3554,2.3516,2.352,2.3664,2.3667,2.3669,2.3681,0,0,0,0,0,0,2.3231,2.3246,2.3266,2.3307,2.3322,2.3395,2.3379,2.3385,2.3408,2.3408,2.3449,2.3454,2.3469,2.3524,2.3534,2.3559,2.3524,2.3662,2.3665,2.3668,2.3678,2.3683,2.3687,0,0,0,0,0,2.3226,2.3266,2.3267,2.3279,2.3347,2.3396,2.3405,2.3422,2.341,2.3431,2.3453,2.3453,2.3549,2.3529,2.3541,2.3567,2.3661,2.3665,2.3668,2.3676,2.3682,2.3687,0,0,0,0,0,0,2.3227,2.3271,2.3273,2.3327,2.3358,2.3397,2.3424,2.3427,2.3462,2.346,2.3478,2.3487,2.3538,2.3557,2.3534,2.362,2.3604,2.361,2.3606,2.3612,2.3616,2.3611,2.3527,0,0,0,0,0,2.3233,2.327,2.3306,2.335,2.3366,2.3392,2.3414,2.3424,2.3457,2.347,2.3495,2.3527,2.3565,2.3589,2.3625,2.3681,2.3691,2.3705,2.3709,2.3712,2.3718,2.3751,2.3758,2.3681,2.3681,2.3681,0,0,2.3247,2.3276,2.3297,2.3351,2.3376,2.3414,2.3403,2.3443,2.3471,2.3476,2.3526,2.3546,2.3582,2.3636,2.3661,2.3654,2.3741,2.3717,2.3719,2.3723,2.3755,2.3762,2.3769,2.3683,2.3683,2.3682,0,0,2.3292,2.3316,2.3357,2.3383,2.3421,2.3438,2.3448,2.3487,2.3501,2.3551,2.3556,2.359,2.3653,2.368,2.3702,2.3758,2.376,2.3769,2.3792,2.3824,2.383,2.3836,2.3858,2.3865,2.3774,2.3774,2.3774,0,2.3304,2.3361,2.3377,2.3418,2.3442,2.3448,2.349,2.3514,2.3562,2.3579,2.3569,2.3651,2.3676,2.3737,2.3751,2.3767,2.378,2.3765,2.3828,2.3834,2.3839,2.386,2.3868,2.3775,2.3775,2.3775,2.3775,0,2.3376,2.3415,2.3443,2.349,2.3517,2.3558,2.3581,2.3606,2.3614,2.3632,2.3684,2.3714,2.3758,2.3773,2.378,2.3835,2.383,2.3824,2.3808,2.3847,2.3868,2.3876,2.3776,2.3776,2.3776,2.3775,0,0,2.3424,2.348,2.349,2.3513,2.3556,2.3587,2.3628,2.3671,2.3693,2.3726,2.3762,2.3816,2.3812,2.3836,2.3847,2.3874,2.3919,2.3865,2.3866,2.3876,2.3984,2.399,2.3999,2.392,2.3922,2.3923,2.3982,0,2.3475,2.3549,2.3565,2.363,2.3667,2.3674,2.371,2.3741,2.3759,2.3794,2.3813,2.3853,2.3842,2.3858,2.3885,2.3908,2.3941,2.3903,2.3955,2.3957,2.3948,2.4009,2.4015,2.4069,2.399,2.3991,2.3992,0,2.3545,2.3581,2.3649,2.3689,2.3705,2.3737,2.3779,2.3811,2.3847,2.3858,2.3886,2.3894,2.3938,2.3919,2.398,2.3954,2.3976,2.399,2.3993,2.4,2.3978,2.402,2.4087,2.4096,2.4004,2.4003,2.4002,0,2.3577,2.3641,2.3691,2.3709,2.3756,2.3779,2.38,2.3834,2.3859,2.3895,2.3912,2.3952,2.3974,2.4005,2.4024,2.4008,2.4085,2.4067,2.4097,2.4097,2.4114,2.4113,2.4188,2.4125,2.4125,2.4125,2.4124,0,2.3634,2.3676,2.3706,2.3737,2.3784,2.3802,2.3849,2.3869,2.39,2.3935,2.3942,2.3975,2.3997,2.4033,2.4048,2.4098,2.4107,2.4119,2.4122,2.4119,2.4118,2.4135,2.4133,2.4127,2.4126,2.4126,2.4125,0,2.3677,2.3699,2.3754,2.3794,2.3805,2.3839,2.3873,2.3904,2.3922,2.3967,2.3978,2.4007,2.405,2.4072,2.4125,2.4135,2.4192,2.4192,2.4181,2.4183,2.4213,2.421,2.4302,2.4316,2.4242,2.4243,2.4243,0,2.3713,2.3746,2.379,2.3814,2.3836,2.3875,2.3901,2.3919,2.3946,2.3989,2.4015,2.4058,2.4095,2.4163,2.4189,2.4231,2.4233,2.4263,2.424,2.4236,2.4236,2.4235,2.4239,2.4267,2.4268,2.4269,2.4269,0,2.3776,2.3785,2.3823,2.3864,2.3895,2.3929,2.3962,2.3981,2.4005,2.4035,2.408,2.4108,2.4163,2.4207,2.425,2.4271,2.4275,2.4276,2.4286,2.4284,2.4277,2.4283,2.4194,2.4274,2.4274,2.4273,2.4273,2.4273,2.3819,2.3849,2.3885,2.3927,2.3953,2.3984,2.4016,2.4038,2.4075,2.4122,2.4131,2.4178,2.4214,2.4272,2.4295,2.4333,2.4327,2.434,2.4344,2.4347,2.435,2.4269,2.4341,2.434,2.434,2.434,2.434,0,2.3884,2.3907,2.3945,2.3992,2.4025,2.4025,2.4061,2.4089,2.4131,2.4164,2.42,2.4252,2.4294,2.4323,2.4367,2.4392,2.4395,2.4403,2.4402,2.4408,2.4352,2.4341,2.44,2.44,2.44,2.44,2.44,2.44,2.3922,2.3973,2.3987,2.4052,2.4076,2.4123,2.4144,2.4173,2.4199,2.4257,2.4293,2.4312,2.4343,2.4389,2.4429,2.4436,2.4453,2.4461,2.4469,2.4417,2.4411,2.4405,2.4395,2.4464,2.4464,2.4522,2.4522,2.4523]}]]